When you browse on this site, cookies collect data to enhance your experience and personalize the content and advertising you see.
Visit our Privacy Policy to learn more. By continuing to use the site, you agree to this use of cookies and data.
  • In Hungary
  • List of Countries
  • For 7 days
  • Water Temperature
  • Satellite Maps
  • Weather Map
  • News
  • Weather Widgets
  • user-avatar
    Login

    Hourly Weather Chinnamanur

    Today, 20 January, Sunday

    Time Temperature Precipitation Wind Pressure Humidity
    00:00 +21°C° 0 mm 1 mps 727 mmHg 60%
    01:00 +20°C° 0 mm 1 mps 727 mmHg 64%
    02:00 +20°C° 0 mm 1 mps 727 mmHg 68%
    03:00 +20°C° 0 mm 1 mps 727 mmHg 72%
    04:00 +19°C° 0 mm 1 mps 727 mmHg 76%
    05:00 +20°C° 0 mm 1 mps 727 mmHg 81%
    06:00 +21°C° 0 mm 1 mps 727 mmHg 76%
    07:00 +23°C° 0 mm 1 mps 728 mmHg 72%
    08:00 +24°C° 0 mm 1 mps 729 mmHg 67%
    09:00 +26°C° 0 mm 1 mps 729 mmHg 56%
    10:00 +28°C° 0 mm 2 mps 729 mmHg 45%
    11:00 +30°C° 0 mm 3 mps 729 mmHg 32%
    12:00 +31°C° 0 mm 3 mps 728 mmHg 29%
    13:00 +31°C° 0 mm 3 mps 728 mmHg 26%
    14:00 +33°C° 0 mm 3 mps 727 mmHg 22%
    15:00 +31°C° 0 mm 2 mps 727 mmHg 26%
    16:00 +29°C° 0 mm 2 mps 726 mmHg 30%
    17:00 +27°C° 0 mm 2 mps 726 mmHg 38%
    18:00 +25°C° 0 mm 1 mps 726 mmHg 42%
    19:00 +24°C° 0 mm 1 mps 727 mmHg 45%
    20:00 +22°C° 0 mm 1 mps 727 mmHg 49%
    21:00 +21°C° 0 mm 1 mps 727 mmHg 51%
    22:00 +21°C° 0 mm 1 mps 727 mmHg 53%
    23:00 +21°C° 0 mm 1 mps 727 mmHg 55%

    Tomorrow, 21 January, Monday

    Time Temperature Precipitation Wind Pressure Humidity
    00:00 +20°C° 0 mm 1 mps 727 mmHg 59%
    01:00 +20°C° 0 mm 1 mps 727 mmHg 63%
    02:00 +19°C° 0 mm 1 mps 726 mmHg 66%
    03:00 +19°C° 0 mm 1 mps 726 mmHg 66%
    04:00 +19°C° 0 mm 1 mps 726 mmHg 67%
    05:00 +18°C° 0 mm 1 mps 726 mmHg 67%
    06:00 +20°C° 0 mm 1 mps 727 mmHg 60%
    07:00 +22°C° 0 mm 1 mps 727 mmHg 53%
    08:00 +21°C° 0 mm 0 mps 728 mmHg 46%
    09:00 +26°C° 0 mm 1 mps 728 mmHg 38%
    10:00 +28°C° 0 mm 1 mps 728 mmHg 30%
    11:00 +30°C° 0 mm 2 mps 729 mmHg 22%
    12:00 +31°C° 0 mm 2 mps 728 mmHg 21%
    13:00 +31°C° 0 mm 2 mps 727 mmHg 21%
    14:00 +32°C° 0 mm 2 mps 726 mmHg 20%
    15:00 +31°C° 0 mm 2 mps 726 mmHg 24%
    16:00 +30°C° 0 mm 2 mps 726 mmHg 28%
    17:00 +29°C° 0 mm 2 mps 726 mmHg 33%
    18:00 +26°C° 0 mm 1 mps 726 mmHg 36%
    19:00 +24°C° 0 mm 1 mps 727 mmHg 39%
    20:00 +22°C° 0 mm 1 mps 727 mmHg 42%
    21:00 +22°C° 0 mm 1 mps 727 mmHg 42%
    22:00 +21°C° 0 mm 1 mps 727 mmHg 42%
    23:00 +19°C° 0 mm 0 mps 727 mmHg 43%

    Day after tomorrow, 22 January, Tuesday

    Time Temperature Precipitation Wind Pressure Humidity
    00:00 +20°C° 0 mm 1 mps 727 mmHg 45%
    01:00 +20°C° 0 mm 1 mps 726 mmHg 47%
    02:00 +19°C° 0 mm 1 mps 726 mmHg 49%
    03:00 +19°C° 0 mm 1 mps 726 mmHg 53%
    04:00 +19°C° 0 mm 1 mps 726 mmHg 56%
    05:00 +19°C° 0 mm 1 mps 726 mmHg 60%
    06:00 +20°C° 0 mm 1 mps 727 mmHg 58%
    07:00 +20°C° 0 mm 0 mps 727 mmHg 56%
    08:00 +22°C° 0 mm 0 mps 728 mmHg 55%
    09:00 +26°C° 0 mm 1 mps 728 mmHg 46%
    10:00 +28°C° 0 mm 1 mps 728 mmHg 37%
    11:00 +30°C° 0 mm 2 mps 728 mmHg 28%
    12:00 +31°C° 0 mm 2 mps 728 mmHg 26%
    13:00 +32°C° 0 mm 2 mps 727 mmHg 25%
    14:00 +34°C° 0 mm 2 mps 726 mmHg 23%
    15:00 +32°C° 0 mm 2 mps 726 mmHg 27%
    16:00 +30°C° 0 mm 2 mps 726 mmHg 31%
    17:00 +29°C° 0 mm 1 mps 726 mmHg 35%
    18:00 +27°C° 0 mm 1 mps 726 mmHg 39%
    19:00 +25°C° 0 mm 1 mps 727 mmHg 43%
    20:00 +23°C° 0 mm 1 mps 727 mmHg 47%
    21:00 +22°C° 0 mm 1 mps 727 mmHg 49%
    22:00 +20°C° 0 mm 0 mps 727 mmHg 51%
    23:00 +19°C° 0 mm 0 mps 727 mmHg 53%

    23 January, Wednesday

    Time Temperature Precipitation Wind Pressure Humidity
    00:00 +19°C° 0 mm 0 mps 727 mmHg 55%
    01:00 +20°C° 0 mm 1 mps 726 mmHg 57%
    02:00 +20°C° 0 mm 1 mps 726 mmHg 59%
    03:00 +20°C° 0 mm 1 mps 726 mmHg 63%
    04:00 +20°C° 0 mm 1 mps 726 mmHg 66%
    05:00 +19°C° 0 mm 1 mps 726 mmHg 70%
    06:00 +21°C° 0 mm 1 mps 726 mmHg 68%
    07:00 +21°C° 0 mm 0 mps 727 mmHg 66%
    08:00 +23°C° 0 mm 0 mps 728 mmHg 64%
    09:00 +27°C° 0 mm 1 mps 728 mmHg 55%
    10:00 +29°C° 0 mm 1 mps 728 mmHg 47%
    11:00 +31°C° 0 mm 2 mps 728 mmHg 39%
    12:00 +32°C° 0 mm 2 mps 727 mmHg 36%
    13:00 +34°C° 0 mm 2 mps 726 mmHg 34%
    14:00 +35°C° 0 mm 2 mps 725 mmHg 31%
    15:00 +34°C° 0 mm 2 mps 725 mmHg 34%
    16:00 +32°C° 0 mm 2 mps 725 mmHg 38%
    17:00 +31°C° 0 mm 2 mps 725 mmHg 41%
    18:00 +28°C° 0 mm 1 mps 726 mmHg 46%
    19:00 +26°C° 0 mm 1 mps 726 mmHg 51%
    20:00 +22°C° 0 mm 0 mps 727 mmHg 56%
    21:00 +21°C° 0 mm 0 mps 727 mmHg 59%
    22:00 +21°C° 0 mm 0 mps 727 mmHg 62%
    23:00 +20°C° 0 mm 0 mps 727 mmHg 65%

    24 January, Thursday

    Time Temperature Precipitation Wind Pressure Humidity
    00:00 +20°C° 0 mm 0 mps 727 mmHg 69%
    01:00 +19°C° 0 mm 0 mps 726 mmHg 73%
    02:00 +19°C° 0 mm 0 mps 726 mmHg 77%
    03:00 +19°C° 0 mm 0 mps 726 mmHg 79%
    04:00 +21°C° 0 mm 1 mps 726 mmHg 80%
    05:00 +20°C° 0 mm 1 mps 726 mmHg 81%
    06:00 +20°C° 0 mm 0 mps 727 mmHg 76%
    07:00 +22°C° 0 mm 0 mps 728 mmHg 70%
    08:00 +23°C° 0 mm 0 mps 729 mmHg 65%
    09:00 +27°C° 0 mm 1 mps 729 mmHg 58%
    10:00 +29°C° 0 mm 1 mps 729 mmHg 50%
    11:00 +31°C° 0 mm 2 mps 729 mmHg 43%
    12:00 +32°C° 0 mm 2 mps 728 mmHg 41%
    13:00 +32°C° 0 mm 2 mps 727 mmHg 39%
    14:00 +34°C° 0 mm 2 mps 726 mmHg 37%
    15:00 +32°C° 0 mm 2 mps 726 mmHg 40%
    16:00 +31°C° 0 mm 2 mps 725 mmHg 42%
    17:00 +30°C° 0 mm 2 mps 725 mmHg 45%
    18:00 +28°C° 0 mm 1 mps 726 mmHg 49%
    19:00 +26°C° 0 mm 1 mps 726 mmHg 53%
    20:00 +23°C° 0 mm 0 mps 727 mmHg 57%
    21:00 +22°C° 0 mm 0 mps 727 mmHg 60%
    22:00 +21°C° 0 mm 0 mps 727 mmHg 62%
    23:00 +21°C° 0 mm 0 mps 727 mmHg 64%

    25 January, Friday

    Time Temperature Precipitation Wind Pressure Humidity
    00:00 +20°C° 0 mm 0 mps 727 mmHg 67%
    01:00 +20°C° 0 mm 0 mps 726 mmHg 70%
    02:00 +19°C° 0 mm 0 mps 726 mmHg 73%
    03:00 +19°C° 0 mm 0 mps 725 mmHg 75%
    04:00 +19°C° 0 mm 0 mps 725 mmHg 77%
    05:00 +20°C° 0 mm 1 mps 725 mmHg 80%
    06:00 +20°C° 0 mm 0 mps 726 mmHg 75%
    07:00 +22°C° 0 mm 0 mps 727 mmHg 70%
    08:00 +23°C° 0 mm 0 mps 728 mmHg 65%
    09:00 +27°C° 0 mm 1 mps 728 mmHg 57%
    10:00 +29°C° 0 mm 1 mps 728 mmHg 49%
    11:00 +31°C° 0 mm 2 mps 728 mmHg 40%
    12:00 +32°C° 0 mm 2 mps 727 mmHg 38%
    13:00 +34°C° 0 mm 2 mps 726 mmHg 35%
    14:00 +35°C° 0 mm 2 mps 725 mmHg 33%
    15:00 +34°C° 0 mm 2 mps 725 mmHg 37%
    16:00 +31°C° 0 mm 2 mps 725 mmHg 41%
    17:00 +30°C° 0 mm 1 mps 725 mmHg 44%
    18:00 +28°C° 0 mm 1 mps 725 mmHg 49%
    19:00 +27°C° 0 mm 1 mps 726 mmHg 55%
    20:00 +23°C° 0 mm 0 mps 726 mmHg 60%
    21:00 +22°C° 0 mm 0 mps 726 mmHg 64%
    22:00 +22°C° 0 mm 0 mps 726 mmHg 69%
    23:00 +21°C° 0 mm 0 mps 727 mmHg 74%
    Show more